NOAA 17 DEB, 48709

Orbit data source: Space-Track

NOAA 17 DEB, 48709 is space debris in SSO originally from a launch on Mon, 24 Jun 2002 UTC launched from the Air Force Western Test Range (AFWTR). Debris objects in space refer to the collection of defunct objects orbiting the Earth. Examples of debris include non-operational satellites, rocket bodies, and fragments generated from explosions, collisions, or faulty payload assembly.

Loading next visibility...
Identifier
48709, 2002-032AS
Orbit
SSO
Country
Flag of USUS
Related business
Manufacturer
Unknown
Mission
Spacecraft
Bus & Motor
Unknown
Mass
Unknown
Launch date (UTC)
2002-06-24 (23 years ago)
Launch vehicle
Unknown
Launch site
Air Force Western Test Range (AFWTR)
Object type
Payload
Rocket body
Debris
Shape & HBR
Unknown shape, 0.1 m
Radar Cross Section
Small (<0.1 m²)

Expand to show TLE details & history
Last TLE update: 1 day ago

TLE from 1 day ago
0 NOAA 17 DEB
1 48709U 02032AS  25348.41899890  .00009779  00000-0  24255-2 0  9997
2 48709  98.7898 331.8803 0010297  85.0807 275.1563 14.52048061248400
Epoch: 2025-12-14T10:03Z
TLE epoch observation values (Epoch: 2025-12-14T10:03:21.504Z)
Latitude
0.00002°
Longitude
97.70851°
Altitude
721.273 km
Speed
7.495 km/s
True Right ascension
22h 07m 31s
True Declination
0° 00' 00"
Sunlit
Object was in daylight at epoch
Visualization orbit readout
Latitude
Unknown
Longitude
Unknown
Altitude
Unknown
Speed
Unknown
Apparent Right ascension
Unknown
Apparent Declination
Unknown
Sunlit
N/A
Visualization observer readout
Local Sidereal Time
15:08:16
Azimuth
Unknown
Elevation
Unknown
Doppler factor
Unknown
Orbital elements
Apogee altitude
723.392 km
Perigee altitude
708.782 km
Semi-major axis
7,094.224 km
Eccentricity
0.00103
Inclination
98.7898°
RAAN
331.8803°
Arg. of periapsis
85.0807°
True anomaly
275.03877°
Mean anomaly
275.1563°
Eccentric anomaly
275.09754°
Mean motion
3.63233 °/min
Orbital period
99.11 mins
BSTAR
0.0024255
Loading maneuver chart data...
Computing Atmospheric mass density...
Loading historical data...
Loading historical data...
Loading historical data...
Loading historical data...
Loading historical data...
Loading historical data...
Loading historical data...

Documentation

Showing up to 5 results
|